Total_Precipitation_Accumulation
0.10 0.09 0.08 0.08 0.08 0.08 0.09 0.11 0.15 0.15 0.12 0.08 0.07 0.07 0.07 0.07 0.10 0.09 0.11 0.15 0.13 0.12 0.12 0.11 0.10 0.10 0.11 0.12 0.13 0.14 0.15 0.17 0.20 0.24 0.30 0.39 0.49 0.60
0.08 0.08 0.08 0.07 0.08 0.09 0.10 0.11 0.13 0.16 0.15 0.09 0.07 0.07 0.06 0.05 0.06 0.07 0.10 0.10 0.09 0.07 0.07 0.08 0.08 0.08 0.09 0.10 0.12 0.13 0.15 0.16 0.17 0.20 0.24 0.30 0.37 0.46
0.09 0.09 0.10 0.10 0.12 0.11 0.11 0.10 0.10 0.13 0.15 0.08 0.05 0.05 0.09 0.11 0.11 0.14 0.14 0.15 0.13 0.09 0.09 0.10 0.10 0.10 0.10 0.12 0.14 0.15 0.16 0.17 0.18 0.19 0.20 0.22 0.26 0.31
0.08 0.08 0.08 0.08 0.10 0.09 0.08 0.07 0.08 0.12 0.15 0.14 0.10 0.09 0.12 0.15 0.17 0.17 0.09 0.08 0.12 0.09 0.09 0.10 0.12 0.13 0.14 0.15 0.15 0.14 0.12 0.10 0.11 0.12 0.15 0.18 0.21 0.24
0.04 0.05 0.06 0.07 0.07 0.07 0.08 0.07 0.09 0.10 0.16 0.20 0.16 0.15 0.13 0.12 0.16 0.14 0.14 0.20 0.12 0.09 0.08 0.09 0.10 0.11 0.10 0.08 0.08 0.08 0.06 0.05 0.04 0.05 0.08 0.12 0.15 0.18
0.04 0.04 0.04 0.05 0.06 0.07 0.07 0.09 0.13 0.17 0.20 0.23 0.19 0.15 0.13 0.12 0.20 0.20 0.18 0.19 0.17 0.11 0.11 0.09 0.09 0.06 0.05 0.04 0.04 0.05 0.05 0.06 0.06 0.06 0.06 0.06 0.07 0.09
0.03 0.03 0.03 0.04 0.06 0.06 0.07 0.11 0.18 0.23 0.24 0.24 0.21 0.17 0.15 0.19 0.23 0.24 0.23 0.18 0.15 0.12 0.14 0.13 0.14 0.16 0.16 0.12 0.08 0.06 0.04 0.04 0.04 0.05 0.05 0.05 0.04 0.04
0.04 0.04 0.04 0.03 0.03 0.04 0.06 0.11 0.18 0.22 0.23 0.25 0.24 0.25 0.23 0.27 0.32 0.32 0.32 0.32 0.27 0.19 0.22 0.17 0.15 0.21 0.22 0.20 0.13 0.08 0.06 0.04 0.03 0.03 0.03 0.04 0.04 0.03
0.08 0.08 0.05 0.03 0.05 0.09 0.08 0.08 0.10 0.12 0.18 0.26 0.30 0.30 0.31 0.34 0.43 0.42 0.43 0.43 0.38 0.30 0.34 0.30 0.24 0.26 0.19 0.14 0.13 0.11 0.08 0.08 0.06 0.03 0.02 0.03 0.04 0.04
0.08 0.09 0.10 0.09 0.08 0.07 0.06 0.07 0.12 0.15 0.16 0.20 0.30 0.30 0.27 0.30 0.40 0.44 0.44 0.43 0.42 0.41 0.45 0.45 0.33 0.28 0.19 0.27 0.24 0.17 0.12 0.14 0.12 0.06 0.03 0.02 0.03 0.04
0.05 0.06 0.07 0.10 0.08 0.08 0.08 0.12 0.16 0.19 0.14 0.18 0.24 0.29 0.34 0.39 0.43 0.45 0.52 0.58 0.54 0.48 0.52 0.53 0.44 0.36 0.29 0.34 0.33 0.23 0.21 0.27 0.25 0.13 0.06 0.05 0.04 0.05
0.07 0.09 0.09 0.08 0.07 0.07 0.07 0.15 0.22 0.20 0.22 0.28 0.44 0.61 0.67 0.65 0.55 0.52 0.60 0.65 0.64 0.67 0.61 0.60 0.56 0.46 0.41 0.35 0.36 0.39 0.43 0.50 0.45 0.29 0.15 0.10 0.10 0.15
0.10 0.13 0.14 0.08 0.06 0.06 0.08 0.15 0.21 0.20 0.25 0.42 0.62 0.73 0.72 0.64 0.56 0.51 0.55 0.62 0.67 0.75 0.65 0.62 0.61 0.57 0.61 0.51 0.35 0.40 0.53 0.67 0.70 0.56 0.34 0.22 0.18 0.19
0.12 0.13 0.14 0.10 0.09 0.11 0.14 0.18 0.20 0.27 0.40 0.57 0.68 0.67 0.55 0.44 0.41 0.41 0.43 0.49 0.58 0.60 0.55 0.57 0.62 0.59 0.61 0.54 0.43 0.43 0.58 0.75 0.81 0.73 0.57 0.44 0.33 0.28
0.10 0.12 0.14 0.16 0.18 0.27 0.27 0.23 0.29 0.42 0.52 0.59 0.63 0.57 0.48 0.40 0.35 0.35 0.35 0.42 0.47 0.44 0.37 0.40 0.50 0.52 0.58 0.57 0.58 0.65 0.74 0.92 0.95 0.85 0.74 0.61 0.47 0.37
0.09 0.17 0.27 0.32 0.35 0.39 0.42 0.45 0.48 0.49 0.47 0.54 0.54 0.47 0.39 0.34 0.32 0.30 0.34 0.39 0.44 0.44 0.39 0.35 0.41 0.50 0.60 0.60 0.68 0.77 0.80 1.01 1.06 0.95 0.88 0.79 0.65 0.49
0.09 0.23 0.41 0.46 0.47 0.46 0.44 0.44 0.47 0.45 0.45 0.45 0.44 0.42 0.39 0.34 0.31 0.28 0.30 0.33 0.40 0.44 0.42 0.37 0.39 0.43 0.44 0.46 0.58 0.66 0.73 0.89 1.02 0.96 0.89 0.96 0.94 0.73
0.16 0.35 0.45 0.47 0.47 0.43 0.39 0.36 0.36 0.36 0.35 0.36 0.37 0.37 0.36 0.34 0.33 0.29 0.28 0.31 0.35 0.35 0.34 0.32 0.33 0.34 0.32 0.35 0.55 0.65 0.67 0.86 0.95 0.85 0.75 0.87 1.02 0.87
0.23 0.33 0.39 0.43 0.44 0.39 0.35 0.34 0.33 0.30 0.29 0.30 0.32 0.31 0.30 0.30 0.29 0.28 0.27 0.28 0.32 0.32 0.29 0.25 0.24 0.26 0.28 0.39 0.60 0.77 0.75 0.78 0.79 0.74 0.67 0.68 0.89 0.90
0.25 0.28 0.31 0.34 0.37 0.35 0.32 0.29 0.26 0.25 0.23 0.23 0.25 0.27 0.27 0.28 0.25 0.25 0.25 0.24 0.28 0.29 0.26 0.23 0.22 0.25 0.28 0.37 0.61 0.79 0.80 0.64 0.56 0.60 0.63 0.65 0.76 0.76
0.22 0.25 0.24 0.24 0.26 0.27 0.28 0.28 0.25 0.23 0.21 0.21 0.21 0.22 0.23 0.25 0.24 0.21 0.18 0.15 0.19 0.23 0.23 0.24 0.24 0.20 0.19 0.20 0.40 0.61 0.69 0.75 0.63 0.53 0.52 0.54 0.52 0.43
0.18 0.20 0.21 0.21 0.21 0.20 0.19 0.19 0.19 0.17 0.16 0.17 0.19 0.20 0.20 0.20 0.19 0.17 0.16 0.17 0.17 0.18 0.19 0.21 0.19 0.17 0.17 0.22 0.37 0.53 0.56 0.51 0.50 0.52 0.50 0.35 0.23 0.25
0.18 0.18 0.17 0.18 0.17 0.15 0.12 0.12 0.12 0.12 0.13 0.14 0.16 0.18 0.17 0.15 0.13 0.11 0.09 0.08 0.08 0.09 0.12 0.14 0.15 0.13 0.14 0.16 0.24 0.31 0.31 0.26 0.19 0.20 0.34 0.40 0.31 0.30